Location: Melbourne
(37.8170°S, 144.9670°E)
Time: 10:39:42
(UTC+10:00)

deb Explorer IX - All Passes

Search period start: 28 April 2017 00:00
Search period end: 08 May 2017 00:00
Orbit: 540 x 1127 km, 38.8° (Epoch: 26 April)

Date Brightness Start Highest point End Pass type
(mag) Time Alt. Az. Time Alt. Az. Time Alt. Az.
28 Apr - 06:21:56 10° NNW 06:27:44 30° NE 06:33:57 10° E visible
28 Apr - 08:07:42 10° WNW 08:14:52 71° NNE 08:22:22 10° ESE daylight
28 Apr - 09:55:16 10° W 10:02:47 83° S 10:10:11 10° E daylight
28 Apr - 11:43:14 10° WSW 11:50:47 81° NNW 11:57:45 10° ENE daylight
28 Apr - 13:31:29 10° W 13:38:03 37° NNW 13:43:57 10° NNE daylight
29 Apr - 06:02:25 10° NNW 06:08:10 30° NE 06:14:24 10° E visible
29 Apr - 07:48:13 10° WNW 07:55:18 73° NNE 08:02:49 10° ESE daylight
29 Apr - 09:35:45 10° W 09:43:13 83° S 09:50:41 10° E daylight
29 Apr - 11:23:40 10° WSW 11:31:13 79° NNW 11:38:18 10° ENE daylight
29 Apr - 13:11:55 10° W 13:18:30 36° NW 13:24:29 10° NNE daylight
30 Apr - 05:42:54 10° NNW 05:48:36 31° NE 05:54:51 10° E visible
30 Apr - 07:28:45 10° WNW 07:35:44 74° NNE 07:43:15 10° ESE daylight
30 Apr - 09:16:15 10° W 09:23:40 83° S 09:31:11 10° E daylight
30 Apr - 11:04:06 10° WSW 11:11:39 78° NNW 11:18:49 10° ENE daylight
30 Apr - 12:52:20 10° W 12:58:56 35° NW 13:04:59 10° NNE daylight
01 May - 05:23:26 10° NNW 05:29:02 32° NE 05:35:17 10° E visible
01 May - 07:09:18 10° WNW 07:16:09 76° NNE 07:23:40 10° ESE daylight
01 May - 08:56:46 10° W 09:04:06 83° S 09:11:39 10° E daylight
01 May - 10:44:33 10° WSW 10:52:04 77° NNW 10:59:20 10° ENE daylight
01 May - 12:32:47 10° W 12:39:21 34° NW 12:45:28 10° NNE daylight
02 May - 05:03:57 10° NNW 05:09:28 33° NE 05:15:41 10° E visible
02 May - 06:49:52 10° WNW 06:56:36 77° NNE 07:04:03 10° ESE daylight
02 May - 08:37:17 10° W 08:44:31 83° S 08:52:06 10° E daylight
02 May - 10:25:01 10° WSW 10:32:28 75° NNW 10:39:49 10° ENE daylight
02 May - 12:13:13 10° W 12:19:45 33° NW 12:25:54 10° NNE daylight
03 May - 04:44:30 10° NNW 04:49:55 34° NE 04:56:05 10° E visible
03 May - 06:30:27 10° WNW 06:37:02 78° NNE 06:44:27 10° ESE visible
03 May - 08:17:50 10° W 08:24:57 83° S 08:32:31 10° E daylight
03 May - 10:05:29 10° WSW 10:12:53 73° NNW 10:20:17 10° ENE daylight
03 May - 11:53:40 10° W 12:00:09 32° NW 12:06:20 10° NNE daylight
04 May - 04:25:05 10° NNW 04:30:23 34° NE 04:36:28 10° E visible
04 May - 06:11:03 10° WNW 06:17:29 80° NNE 06:24:49 10° ESE visible
04 May - 07:58:22 10° W 08:05:22 83° S 08:12:56 10° E daylight
04 May - 09:45:57 10° WSW 09:53:16 72° NNW 10:00:43 10° ENE daylight
04 May - 11:34:08 10° W 11:40:31 31° NW 11:46:43 10° NNE daylight
05 May - 04:05:39 10° NNW 04:10:50 35° NNE 04:16:50 10° E visible
05 May - 05:51:39 10° WNW 05:57:55 81° NNE 06:05:11 10° E visible
05 May - 07:38:55 10° W 07:45:48 83° S 07:53:19 10° E daylight
05 May - 09:26:27 10° WSW 09:33:40 70° NNW 09:41:07 10° ENE daylight
05 May - 11:14:37 10° W 11:20:54 30° NW 11:27:04 10° NNE daylight
06 May - 03:46:14 10° NNW 03:51:18 36° NNE 03:57:13 10° E visible
06 May - 05:32:15 10° WNW 05:38:24 83° NNE 05:45:32 10° E visible
06 May - 07:19:29 10° W 07:26:13 83° S 07:33:42 10° E daylight
06 May - 09:06:57 10° WSW 09:14:03 68° NNW 09:21:30 10° ENE daylight
06 May - 10:55:07 10° W 11:01:16 29° NW 11:07:23 10° NNE daylight
07 May - 03:26:50 10° NNW 03:31:47 36° NNE 03:37:35 10° E visible
07 May - 05:12:52 10° WNW 05:18:51 84° NNE 05:25:53 10° E visible
07 May - 07:00:04 10° W 07:06:39 83° S 07:14:03 10° E daylight
07 May - 08:47:27 10° WSW 08:54:26 66° NNW 09:01:52 10° ENE daylight
07 May - 10:35:38 10° W 10:41:38 27° NW 10:47:41 10° NNE daylight
